Regional Weather Roundup
Issued by NWS Kansas City/Pleasant Hill, MO

Home | Current Version | Previous Version | Graphics & Text | Print | Product List | Glossary Off
Versions: 1 2 3 4 5 6 7 8 9 10 11 12 13 14 15 16 17 18 19 20 21 22 23 24 25 26 27 28 29 30 31 32 33 34 35 36 37 38 39 40 41 42 43 44 45 46 47 48 49 50

000
ASUS43 KEAX 080110
RWREAX

WEATHER ROUNDUP FOR EASTERN KANSAS AND NORTHWEST MISSOURI
NATIONAL WEATHER SERVICE KANSAS CITY/PLEASANT HILL MO
700 PM CST SUN FEB 07 2016

KSZ040-057-103>105-MOZ028-029-037-043-080200-
...KANSAS CITY METROPOLITAN AREA...

CITY           SKY/WX    TMP DP  RH WIND       PRES   REMARKS
K.C. INTL      CLOUDY    41  25  53 N24G37    30.01R WCI  31
K.C. DOWNTOWN  CLOUDY    46  20  35 NW16G29   30.00R
LEES SUMMIT    CLOUDY    45  19  35 W18G32    29.99F
OLATHE - IXD   CLOUDY    43  22  43 NW29G37   30.04R WCI  33
OLATHE - OJC   CLOUDY    43  21  41 NW20G30   30.02R WCI  34
LAWRENCE       CLOUDY    43  21  41 NW36G47   30.06R WCI  32

$$

MOZ001>008-011>017-020>025-030>033-038>040-044>046-053-054-080200-
...NORTHERN AND CENTRAL MISSOURI...

CITY           SKY/WX    TMP DP  RH WIND       PRES   REMARKS
ST. JOSEPH     CLOUDY    38  27  64 NW16G26   30.02R WCI  29
MOSBY          CLOUDY    43  25  49 NW18G35   30.00R WCI  34
WARRENSBURG    MOCLDY    45  19  36 W14G21    29.99S
WHITEMAN AFB   PTCLDY    45  18  33 NW15G22   29.97S
CLINTON          N/A     45  21  39 W8        30.01R
SEDALIA        PTCLDY    45  18  34 NW21G33   29.98R
WARSAW         NOT AVBL
CHILLICOTHE      N/A     44  23  43 NW17G28   29.95F
KIRKSVILLE     CLOUDY    37  28  70 SW3       29.89S

$$

MOZ041-047>049-056>058-063>065-088>090-097-080200-
...EASTERN AND SOUTHERN MISSOURI...

CITY           SKY/WX    TMP DP  RH WIND       PRES   REMARKS
ST. LOUIS INTL NOT AVBL
SPIRIT OF STL  CLOUDY    49  23  36 W8        29.90R
COLUMBIA       CLEAR     42  24  49 W8        29.93F
JEFFERSON CITY PTCLDY    43  25  49 W5        29.95S
ROLLA          CLOUDY    44  21  40 W7        29.93F
OSAGE BEACH    PTCLDY    46  19  34 W13       29.97S
SPRINGFIELD    MOCLDY    45  20  36 W7        30.01R
BRANSON        MOCLDY    46  23  39 W5        30.04R
JOPLIN         CLEAR     47  16  29 NW18G24   30.08R
WEST PLAINS    MOCLDY    46  24  42 W7        29.99S

$$

IAZ060-094-KSZ022-034>040-054-083-096-NEZ052-066-093-080200-
...KANSAS...SOUTHEAST NEBRASKA AND IOWA...

CITY           SKY/WX    TMP DP  RH WIND       PRES   REMARKS
TOPEKA         LGT RAIN  43  21  41 NW20G43   30.09R WCI  34
MANHATTAN      PTCLDY    42  20  41 VRB5      30.10S
EMPORIA        MOCLDY    44  18  35 NW15      30.09R
CHANUTE        PTCLDY    45  13  27 NW12      30.10R
WICHITA        PTCLDY    44  22  41 NW17      30.17R
OMAHA          CLOUDY    35  29  78 NW31      29.98R WCI  22
LINCOLN        CLOUDY    37  28  70 NW14      30.05R WCI  28
FALLS CITY     CLOUDY    38  28  67 NW17G31   30.02S WCI  28
LAMONI         CLOUDY    34  29  82 W20G25    29.91S WCI  23
DES MOINES     CLOUDY    36  30  79 NW17      29.86S WCI  26

$$




USA.gov is the U.S. government's official web portal to all federal, state and local government web resources and services.